PA3DZX-13 Weather Reports


Display with metric or nautical units.
time (UTC)temp
F
wind
direction
speed
MPH
gust
MPH
rain 1hr
in
rain 24hr
in
rain mn
in
humidity
%
barometer
mb
20260901020728 59 228 6.0 11.0 0.00 0.00 0.00 89 1016.2
20260901015226 59 220 6.0 11.0 0.00 0.00 0.00 89 1016.1
20260901013726 59 221 6.0 11.0 0.00 0.00 0.00 89 1016.2
20260901012224 59 225 6.0 11.0 0.00 0.00 0.00 89 1016.0
20260901010724 59 220 6.0 8.0 0.00 0.00 0.00 88 1015.9
20260901005224 59 218 6.0 11.0 0.00 0.00 0.00 88 1015.9
20260901003725 59 220 6.0 8.0 0.00 0.00 0.00 88 1015.8
20260901002223 59 221 6.0 8.0 0.00 0.00 0.00 89 1015.8
20260901000723 57 219 6.0 8.0 0.00 0.00 0.00 89 1015.8
20260831235224 57 213 4.0 8.0 0.00 0.00 0.00 89 1015.8
20260831233723 57 218 6.0 8.0 0.00 0.00 0.00 88 1015.7
20260831232222 57 219 4.0 8.0 0.00 0.00 0.00 87 1015.6
20260831230722 57 217 6.0 8.0 0.00 0.00 0.00 87 1015.5
20260831225222 59 227 6.0 8.0 0.00 0.00 0.00 86 1015.6
20260831223723 59 231 6.0 11.0 0.00 0.00 0.00 85 1015.5
20260831222221 59 232 6.0 11.0 0.00 0.00 0.00 84 1015.5
20260831220721 59 235 6.0 11.0 0.00 0.00 0.00 84 1015.4
20260831215221 59 232 6.0 8.0 0.00 0.00 0.00 85 1015.2
20260831213721 59 227 6.0 8.0 0.00 0.00 0.00 84 1015.2
20260831212221 59 217 4.0 8.0 0.00 0.00 0.00 86 1014.9
20260831210721 59 217 4.0 8.0 0.00 0.00 0.00 86 1014.8
20260831205220 59 231 4.0 6.0 0.00 0.00 0.00 88 1014.6
20260831203720 59 239 4.0 8.0 0.00 0.00 0.00 87 1014.5
20260831202220 60 246 6.0 11.0 0.00 0.00 0.00 86 1014.3
20260831200720 60 247 8.0 11.0 0.00 0.00 0.00 85 1014.1
20260831195219 60 248 6.0 13.0 0.00 0.00 0.00 86 1013.9
20260831193720 60 262 8.0 13.0 0.00 0.00 0.00 84 1013.8
20260831192219 60 247 6.0 11.0 0.00 0.00 0.00 85 1013.7
20260831190719 62 248 11.0 17.0 0.01 0.00 0.00 75 1013.2
20260831185218 64 251 11.0 17.0 0.00 0.00 0.00 67 1012.7
20260831183718 64 252 11.0 17.0 0.00 0.00 0.00 68 1012.6
20260831182217 62 248 8.0 17.0 0.00 0.00 0.00 70 1012.2
20260831180717 64 251 11.0 17.0 0.00 0.00 0.00 68 1012.0
20260831175216 64 251 11.0 17.0 0.00 0.00 0.00 68 1012.0
20260831173716 64 249 11.0 17.0 0.00 0.00 0.00 65 1011.8
20260831172215 64 246 11.0 17.0 0.00 0.00 0.00 67 1011.7
20260831170716 64 254 11.0 20.0 0.00 0.00 0.00 66 1011.4
20260831165214 64 262 8.0 15.0 0.00 0.00 0.00 68 1011.3
20260831163714 64 261 11.0 15.0 0.00 0.00 0.00 71 1011.1
20260831162214 64 250 8.0 22.0 0.00 0.00 0.00 74 1011.0
20260831160714 64 235 13.0 22.0 0.00 0.00 0.00 71 1010.7
20260831155213 66 227 13.0 20.0 0.00 0.00 0.00 69 1010.6
20260831153713 66 231 13.0 20.0 0.00 0.00 0.00 71 1010.4
20260831152212 64 224 11.0 20.0 0.00 0.00 0.00 71 1010.5
20260831150712 64 228 11.0 15.0 0.00 0.00 0.00 73 1010.3
20260831145211 60 220 8.0 13.0 0.00 0.00 0.00 84 1010.1
20260831143711 59 218 8.0 17.0 0.00 0.00 0.00 86 1010.1
20260831142210 59 274 13.0 20.0 0.11 0.00 0.00 84 1010.2
20260831140711 62 280 11.0 22.0 0.00 0.00 0.00 72 1010.3
20260831135210 62 293 15.0 26.0 0.00 0.00 0.00 68 1009.9
20260831133710 64 238 17.0 26.0 0.01 0.00 0.00 63 1009.6
20260831132209 68 236 17.0 26.0 0.00 0.00 0.00 53 1009.0
20260831130709 69 226 15.0 26.0 0.00 0.00 0.00 52 1008.8
20260831125208 71 236 20.0 26.0 0.00 0.00 0.00 50 1008.6
20260831123708 68 245 15.0 22.0 0.00 0.00 0.00 59 1008.8
20260831122208 66 241 13.0 22.0 0.00 0.00 0.00 65 1008.8
20260831120707 66 245 15.0 24.0 0.00 0.00 0.00 65 1008.7
20260831115207 68 217 17.0 29.0 0.00 0.00 0.00 61 1008.7
20260831113707 68 211 15.0 26.0 0.00 0.00 0.00 61 1008.6
20260831112206 68 200 11.0 22.0 0.00 0.00 0.00 62 1008.3
20260831110706 68 206 13.0 22.0 0.00 0.00 0.00 62 1008.4
20260831105204 69 210 13.0 20.0 0.00 0.00 0.00 61 1008.5
20260831103705 66 213 15.0 26.0 0.00 0.00 0.00 67 1008.7
20260831102204 66 221 13.0 26.0 0.00 0.00 0.00 67 1008.8
20260831100705 68 219 13.0 26.0 0.00 0.00 0.00 68 1008.9
20260831095203 66 206 15.0 24.0 0.00 0.00 0.00 70 1009.0
20260831093704 66 210 13.0 22.0 0.00 0.00 0.00 71 1008.9
20260831092200 64 209 13.0 22.0 0.00 0.00 0.00 72 1009.0
20260831090700 64 213 15.0 22.0 0.00 0.00 0.00 73 1009.0
20260831085159 64 207 15.0 24.0 0.00 0.00 0.00 72 1009.0
20260831083659 64 209 13.0 24.0 0.00 0.00 0.00 73 1009.1
20260831082159 64 213 15.0 24.0 0.00 0.00 0.00 74 1008.9
20260831080658 64 212 13.0 22.0 0.00 0.00 0.00 75 1008.9
20260831075158 64 208 11.0 17.0 0.00 0.00 0.00 76 1009.1
20260831073658 62 207 13.0 20.0 0.00 0.00 0.00 78 1009.1
20260831072157 62 217 11.0 20.0 0.00 0.00 0.00 80 1009.2
20260831070656 62 213 13.0 20.0 0.00 0.00 0.00 80 1009.1
20260831065156 62 208 11.0 20.0 0.00 0.00 0.00 82 1008.9
20260831063656 62 201 11.0 20.0 0.00 0.00 0.00 82 1008.7
20260831062155 60 197 11.0 20.0 0.00 0.00 0.00 82 1008.8
20260831060655 60 198 11.0 15.0 0.00 0.00 0.00 83 1008.7
20260831055154 60 200 8.0 15.0 0.00 0.00 0.00 84 1008.7
20260831053654 60 204 8.0 17.0 0.00 0.00 0.00 85 1008.7
20260831052154 60 197 8.0 17.0 0.00 0.00 0.00 84 1008.5
20260831050654 60 194 8.0 15.0 0.00 0.00 0.00 84 1008.6
20260831045153 60 197 11.0 15.0 0.00 0.00 0.00 84 1008.6
20260831043654 60 194 11.0 15.0 0.00 0.00 0.00 84 1008.5
20260831042153 60 186 8.0 13.0 0.00 0.00 0.00 83 1008.5
20260831040653 60 187 6.0 13.0 0.00 0.00 0.00 83 1008.6
20260831035153 60 186 6.0 11.0 0.00 0.00 0.00 84 1008.8
20260831033653 59 181 6.0 8.0 0.00 0.00 0.00 86 1008.7
20260831032153 59 181 4.0 6.0 0.00 0.00 0.00 87 1008.6
20260831030653 59 189 4.0 6.0 0.00 0.00 0.00 87 1008.7
20260831025152 59 193 4.0 8.0 0.00 0.00 0.00 86 1008.7
20260831023652 60 170 6.0 8.0 0.00 0.00 0.00 85 1008.7
20260831022152 60 172 6.0 8.0 0.00 0.00 0.00 84 1008.7